EDT,Max TemperatureF,Mean TemperatureF,Min TemperatureF,Max Dew PointF,MeanDew PointF,Min DewpointF,Max Humidity, Mean Humidity, Min Humidity, Max Sea Level PressureIn, Mean Sea Level PressureIn, Min Sea Level PressureIn, Max VisibilityMiles, Mean VisibilityMiles, Min VisibilityMiles, Max Wind SpeedMPH, Mean Wind SpeedMPH, Max Gust SpeedMPH,PrecipitationIn, CloudCover, Events, WindDirDegrees
2012-10-1,71,59,46,56,49,44,100,82,40,29.97,29.93,29.88,10,6,0,13,4,15,T,5,Fog-Rain,294
2012-10-2,63,61,58,61,59,55,96,92,82,30.00,29.96,29.92,10,3,1,8,2,14,0.77,8,Rain,52
2012-10-3,73,68,62,67,63,61,100,93,78,30.12,30.04,29.96,9,4,0,9,1,17,0.09,8,Fog-Rain,315
2012-10-4,76,66,56,67,64,55,100,92,64,30.14,30.12,30.08,10,3,0,13,2,15,0.01,6,Fog-Rain,304
2012-10-5,79,66,53,63,57,52,97,75,48,30.12,30.04,29.91,10,8,4,13,4,16,0.00,1,,244
2012-10-6,67,58,49,58,50,41,93,70,48,30.06,29.91,29.82,10,9,5,23,8,29,0.00,4,,283
2012-10-7,55,50,45,45,41,37,87,71,59,30.16,30.09,30.04,10,10,10,16,5,21,0.01,6,Rain,280
2012-10-8,50,45,40,43,39,36,90,78,66,30.30,30.25,30.18,10,10,6,13,4,15,0.03,6,Rain,315
2012-10-9,60,53,46,50,45,42,93,75,57,30.24,30.16,30.07,10,10,7,8,4,16,0.02,8,,72
2012-10-10,66,56,46,52,49,37,93,71,48,30.06,29.98,29.84,10,6,1,24,7,30,0.05,6,Rain,285
2012-10-11,60,51,41,39,34,29,76,55,33,30.27,30.18,30.08,10,10,10,18,7,24,0.00,2,,287
2012-10-12,57,46,35,40,34,24,92,62,32,30.46,30.25,30.12,10,10,10,22,6,28,T,2,Rain,334
2012-10-13,58,45,32,38,31,27,89,62,35,30.54,30.43,30.27,10,10,10,10,4,16,0.00,2,,155
2012-10-14,71,59,47,52,46,36,80,65,49,30.22,30.08,29.90,10,10,10,14,4,18,T,6,Rain,143
2012-10-15,66,59,52,60,56,45,93,80,67,29.86,29.74,29.68,10,8,2,17,7,21,0.38,7,Rain,257
2012-10-16,60,51,41,43,40,37,89,67,44,29.94,29.86,29.79,10,10,10,21,8,29,T,3,,316
2012-10-17,65,52,38,47,42,37,93,70,46,30.03,29.96,29.92,10,9,6,8,1,10,0.00,3,,124
2012-10-18,68,57,45,56,50,44,100,75,49,29.96,29.90,29.82,10,6,2,22,8,26,1.14,5,Rain-Thunderstorm,118
2012-10-19,67,61,54,61,57,55,100,91,81,29.86,29.71,29.61,8,3,0,16,3,23,0.26,7,Fog-Rain-Thunderstorm,101
2012-10-20,62,55,48,56,45,39,100,72,43,29.91,29.77,29.66,10,8,0,17,7,23,0.00,3,Fog,295
2012-10-21,64,54,43,45,41,39,83,63,43,30.11,30.03,29.92,10,10,10,18,7,25,0.00,2,,311
2012-10-22,69,55,40,46,42,37,89,63,37,30.18,30.13,30.09,10,10,10,10,2,15,0.00,0,,286
2012-10-23,64,56,48,57,52,45,100,89,78,30.16,30.09,30.04,10,6,2,9,1,12,0.21,6,Fog-Rain,11
2012-10-24,75,64,52,59,55,52,100,77,54,30.14,30.09,30.05,10,4,0,8,1,12,0.00,5,Fog,340
2012-10-25,64,62,59,58,57,55,93,86,78,30.23,30.20,30.14,5,3,2,12,7,14,0.00,8,,122
2012-10-26,66,63,59,58,57,55,93,83,73,30.20,30.16,30.07,8,4,2,8,3,12,0.00,8,,123
2012-10-27,65,60,55,57,54,52,93,80,67,30.06,29.97,29.90,10,8,5,14,4,17,0.00,8,,93
2012-10-28,58,55,52,53,48,43,93,75,57,29.90,29.78,29.66,10,9,5,16,6,22,0.13,8,Rain,8
2012-10-29,56,53,50,53,47,46,93,88,83,29.66,29.14,28.46,10,5,2,40,20,52,2.93,8,Rain,331
2012-10-30,52,46,40,50,40,37,92,88,83,29.45,29.20,28.46,10,8,2,32,13,44,0.53,8,Rain,158
2012-10-31,46,43,40,38,37,36,92,79,65,29.62,29.54,29.45,10,10,6,12,7,18,0.02,8,Rain,218